Plymouth, MA

6:01 PM EST on December 14, 2017 (GMT -0500)
Plymouth Municipal

Weather History for KPYM - April, 2014

Change the Weather History Date:

Friday, April 11, 2014

  Actual Average Record
Temperature  
Mean Temperature 54 °F -  
Max Temperature 66 °F 54 °F 78 °F (1955)
Min Temperature 46 °F 33 °F 17 °F (1997)
Degree Days  
Heating Degree Days 10    
Growing Degree Days 4 (Base 50)    
Moisture  
Dew Point 41 °F    
Average Humidity 62    
Maximum Humidity 80    
Minimum Humidity 48    
Precipitation  
Precipitation 0.00 in - - ()
Sea Level Pressure  
Sea Level Pressure 30.00 in    
Wind  
Wind Speed 9 mph (SSW)    
Max Wind Speed 14 mph    
Max Gust Speed 22 mph    
Visibility 10 miles    
Events      
Averages and records for this station are not official NWS values.
T = Trace of Precipitation, MM = Missing Value Source: NWS Daily Summary

Daily Weather History Graph

Daily Weather History Graph

Search for Another Location

Airport or City:

Trip Planner

Search our weather history database for the weather conditions in past years. The results will help you decide how hot, cold, wet, or windy it might be!

Date:

Astronomy

Apr. 11, 2014 Rise Set
Actual Time 6:09 AM EDT 7:19 PM EDT
Civil Twilight 5:40 AM EDT 7:48 PM EDT
Nautical Twilight 5:06 AM EDT 8:22 PM EDT
Astronomical Twilight 4:30 AM EDT 8:58 PM EDT
Moon 3:54 PM EDT (4/11) 4:05 AM EDT (4/11)
Length of Visible Light 14h 07m
Length of Day
13h 10m
Waxing Gibbous, 87% of the Moon is Illuminated
Apr 11
Waxing Gibbous
Apr 15
Full
Apr 22
Last Quarter
Apr 29
New
May 6
First Quarter

Hourly Weather History & Observations

Time (EDT) Temp. Dew Point Humidity Pressure Visibility Wind Dir Wind Speed Gust Speed Precip Events Conditions
12:52 AM 46.9 °F 37.9 °F 71% 30.06 in 10.0 mi SSW 13.8 mph - N/A   Clear
1:52 AM 48.0 °F 37.9 °F 68% 30.05 in 10.0 mi SSW 10.4 mph - N/A   Clear
2:52 AM 50.0 °F 36.0 °F 59% 30.03 in 10.0 mi SSW 13.8 mph 21.9 mph N/A   Overcast
3:52 AM 48.9 °F 37.0 °F 64% 30.01 in 10.0 mi South 6.9 mph - N/A   Overcast
4:52 AM 50.0 °F 37.9 °F 63% 29.99 in 10.0 mi SSW 6.9 mph - N/A   Mostly Cloudy
5:52 AM 51.1 °F 39.0 °F 63% 29.98 in 10.0 mi SSW 11.5 mph - N/A   Clear
6:52 AM 51.1 °F 39.9 °F 66% 29.99 in 10.0 mi SSW 11.5 mph - N/A   Overcast
7:52 AM 54.0 °F 39.9 °F 59% 30.01 in 10.0 mi SSW 12.7 mph 18.4 mph N/A   Clear
8:52 AM 54.0 °F 39.9 °F 59% 30.00 in 10.0 mi SSW 10.4 mph - N/A   Scattered Clouds
9:52 AM 55.9 °F 41.0 °F 57% 30.00 in 10.0 mi SW 9.2 mph - N/A   Mostly Cloudy
10:52 AM 57.0 °F 41.0 °F 55% 30.01 in 10.0 mi SSW 8.1 mph - N/A   Mostly Cloudy
11:52 AM 57.9 °F 41.0 °F 53% 30.00 in 10.0 mi SSW 6.9 mph - N/A   Scattered Clouds
12:52 PM 62.1 °F 42.1 °F 48% 29.99 in 10.0 mi SW 9.2 mph - N/A   Clear
1:52 PM 63.0 °F 44.1 °F 50% 29.98 in 10.0 mi SSW 10.4 mph - N/A   Clear
2:52 PM 61.0 °F 43.0 °F 52% 29.96 in 10.0 mi SSE 5.8 mph - N/A   Partly Cloudy
3:52 PM 62.1 °F 43.0 °F 50% 29.95 in 10.0 mi Variable 6.9 mph - N/A   Scattered Clouds
4:52 PM 59.0 °F 43.0 °F 55% 29.95 in 10.0 mi SSE 9.2 mph - N/A   Partly Cloudy
5:52 PM 61.0 °F 42.1 °F 50% 29.95 in 10.0 mi South 8.1 mph - N/A   Clear
6:52 PM 55.9 °F 42.1 °F 60% 29.97 in 10.0 mi South 4.6 mph - N/A   Mostly Cloudy
7:52 PM 48.9 °F 41.0 °F 74% 30.00 in 8.0 mi Calm Calm - N/A   Clear
8:52 PM 48.0 °F 39.9 °F 74% 30.02 in 8.0 mi Calm Calm - N/A   Partly Cloudy
9:52 PM 48.9 °F 42.1 °F 77% 30.02 in 8.0 mi Calm Calm - N/A   Mostly Cloudy
10:52 PM 48.9 °F 42.1 °F 77% 30.02 in 9.0 mi South 3.5 mph - N/A   Mostly Cloudy
11:52 PM 46.9 °F 41.0 °F 80% 30.01 in 8.0 mi Calm Calm - N/A   Mostly Cloudy